1385510428531,147.973
1385510488531,148.027
1385510548531,147.644
1385510608531,148.190
1385510668531,147.898
1385510728531,147.876
1385510788531,147.919
1385510848531,147.691
1385510908531,147.424
1385510968531,147.736
1385511028531,147.866
1385511088531,147.699
1385511148531,147.899
1385511208531,147.621
1385511268531,147.554
1385511328531,147.571
1385511388531,147.566
1385511448531,147.645
1385511508531,147.677
1385511568531,147.680
1385511628531,147.474
1385511688531,147.427
1385511748531,147.722
1385511808531,147.653
1385511868531,147.345
1385511928531,147.041
1385511988531,147.390
1385512048531,147.657
1385512108531,147.061
1385512168531,147.122
1385512228531,147.342
1385512288531,147.167
1385512348531,147.127
1385512408531,147.332
1385512468531,147.237
1385512528531,147.071
1385512588531,147.385
1385512648531,147.239
1385512708531,147.072
1385512768531,146.977
1385512828531,147.135
1385512888531,146.938
1385512948531,146.947
1385513008531,146.438
1385513068531,146.653
1385513128531,146.761
1385513188531,146.678
1385513248531,146.833
1385513308531,146.709
1385513368531,146.558
1385513428531,146.634
1385513488531,146.548
1385513548531,146.376
1385513608531,146.512
1385513668531,146.716
1385513728531,146.494
1385513788531,146.395
1385513848531,146.584
1385513908531,146.499
1385513968531,146.635
1385514028540,146.420
1385514088540,146.648
1385514148540,146.330
1385514208540,146.415
1385514268540,146.517
1385514328540,146.445
1385514388540,146.538
1385514448540,146.212
1385514508540,146.345
1385514568540,146.414
1385514628540,146.425
1385514688540,146.476
1385514748540,146.466
1385514808540,146.410
1385514868540,146.287
1385514928540,146.378
1385514988540,146.322
1385515048540,146.369
1385515108540,146.341
1385515168540,146.282
1385515228540,146.371
1385515288540,146.467
1385515348540,145.859
1385515408540,145.928
1385515468540,146.234
1385515528540,145.956
1385515588540,146.023
1385515648540,146.114
1385515708540,145.924
1385515768540,145.714
1385515828540,145.973
1385515888540,145.893
1385515948540,145.834
1385516008540,146.059
1385516068540,145.972
1385516128540,145.977
1385516188540,145.864
1385516248540,146.071
1385516308540,145.780
1385516368540,145.693
1385516428540,146.049
1385516488540,145.977
1385516548540,145.839
1385516608540,146.077
1385516668540,145.749
1385516728540,145.918
1385516788540,145.859
1385516848540,145.822
1385516908540,145.585
1385516968540,145.955
1385517028540,145.920
1385517088540,146.037
1385517148540,145.888
1385517208540,145.494
1385517268540,146.283
1385517328540,145.775
1385517388540,146.166
1385517448540,145.915
1385517508540,145.617
1385517568540,145.818
1385517628550,145.827
1385517688550,145.585
1385517748550,146.027
1385517808550,145.702
1385517868550,145.865
1385517928550,145.711
1385517988550,145.429
1385518048550,145.625
1385518108550,145.565
1385518168550,145.800
1385518228550,145.656
1385518288550,145.863
1385518348550,145.930
1385518408550,145.680
1385518468550,145.642
1385518528550,145.553
1385518588550,145.476
1385518648550,145.719
1385518708550,145.698
1385518768550,145.441
1385518828550,145.751
1385518888550,145.702
1385518948550,145.962
1385519008550,145.529
1385519068550,145.855
1385519128550,145.538
1385519188550,145.744
1385519248550,145.781
1385519308550,145.452
1385519368550,146.029
1385519428550,145.466
1385519488550,145.363
1385519548550,145.772
1385519608550,145.646
1385519668550,145.462
1385519728550,145.780
1385519788550,145.622
1385519848550,145.876
1385519908550,145.647
1385519968550,146.038
1385520028550,145.766
1385520088550,145.451
1385520148550,145.826
1385520208550,145.775
1385520268550,145.734
1385520328550,145.471
1385520388550,145.586
1385520448550,145.400
1385520508550,145.623
1385520568550,145.763
1385520628550,145.637
1385520688550,145.940
1385520748550,145.674
1385520808550,145.960
1385520868550,145.735
1385520928550,145.727
1385520988550,145.897
1385521048550,146.091
1385521108550,145.604
1385521168550,145.765
1385521228560,145.390
1385521288560,145.523
1385521348560,145.732
1385521408560,145.714
1385521468560,145.783
1385521528560,145.579
1385521588560,145.808
1385521648560,145.744
1385521708560,145.679
1385521768560,145.907
1385521828560,145.606
1385521888560,146.006
1385521948560,145.909
1385522008560,145.326
1385522068560,145.670
1385522128560,145.669
1385522188560,145.592
1385522248560,145.615
1385522308560,145.898
1385522368560,146.027
1385522428560,145.918
1385522488560,146.293
1385522548560,146.348
1385522608560,145.772
1385522668560,145.724
1385522728560,145.982
1385522788560,145.987
1385522848560,146.106
1385522908560,145.811
1385522968560,145.836
1385523028560,145.858
1385523088560,145.908
1385523148560,145.744
1385523208560,145.942
1385523268560,145.614
1385523328560,146.003
1385523388560,145.718
1385523448560,145.919
1385523508560,145.931
1385523568560,145.904
1385523628560,145.761
1385523688560,145.594
1385523748560,145.664
1385523808560,146.176
1385523868560,146.090
1385523928560,145.963
1385523988560,146.285
1385524048560,146.203
1385524108560,145.528
1385524168560,145.701
1385524228560,145.727
1385524288560,145.712
1385524348560,145.710
1385524408560,145.607
1385524468560,145.703
1385524528560,145.647
1385524588560,145.769
1385524648560,145.746
1385524708560,145.688
1385524768560,145.802
1385524828570,145.852
1385524888570,145.813
1385524948570,146.179
1385525008570,146.056
1385525068570,145.602
1385525128570,145.854
1385525188570,146.018
1385525248570,145.860
1385525308570,145.848
1385525368570,145.961
1385525428570,145.725
1385525488570,145.756
1385525548570,145.795
1385525608570,145.922
1385525668570,145.820
1385525728570,145.866
1385525788570,145.883
1385525848570,146.178
1385525908570,146.057
1385525968570,146.155
1385526028570,146.390
1385526088570,145.937
1385526148570,146.342
1385526208570,145.975
1385526268570,146.263
1385526328570,146.116
1385526388570,146.114
1385526448570,146.013
1385526508570,146.161
1385526568570,146.030
1385526628570,146.202
1385526688570,146.252
1385526748570,146.114
1385526808570,146.160
1385526868570,146.282
1385526928570,146.590
1385526988570,146.474
1385527048570,146.198
1385527108570,146.262
1385527168570,146.207
1385527228570,146.229
1385527288570,146.295
1385527348570,146.585
1385527408570,146.095
1385527468570,145.871
1385527528570,146.490
1385527588570,146.250
1385527648570,146.312
1385527708570,146.112
1385527768570,146.396
1385527828570,146.472
1385527888570,146.322
1385527948570,146.547
1385528008570,146.027
1385528068570,146.443
1385528128570,146.029
1385528188570,146.108
1385528248570,146.583
1385528308570,145.958
1385528368570,146.084
1385528428579,146.177
1385528488579,146.170
1385528548579,146.127
1385528608579,146.350
1385528668579,146.019
1385528728579,146.052
1385528788579,146.087
1385528848579,146.153
1385528908579,146.466
1385528968579,146.496
1385529028579,146.374
1385529088579,146.228
1385529628579,145.847
1385529688579,145.769
1385529748579,146.615
1385529808579,146.181
1385529868579,146.260
1385529928579,146.200
1385529988579,146.339
1385530048579,146.131
1385530108579,145.982
1385530168579,146.582
1385530228579,146.370
1385530288579,146.222
1385530348579,146.128
1385530408579,146.211
1385530468579,146.082
1385530528579,146.335
1385530588579,146.218
1385530648579,146.428
1385530708579,146.164
1385530768579,146.071
1385530828579,146.110
1385530888579,146.136
1385530948579,146.140
1385531008579,145.956
1385531068579,146.182
1385531128579,146.034
1385531188579,146.123
1385531248579,146.113
1385531308579,145.994
1385531368579,145.957
1385531428579,146.148
1385531488579,146.159
1385531548579,146.011
1385531608579,145.831
1385531668579,145.672
1385531728579,145.916
1385531788579,145.905
1385531848579,146.118
1385531908579,145.644
1385531968579,145.615
1385532028589,145.765
1385532088589,145.554
1385532148589,145.757
1385532208589,145.508
1385532268589,145.380
1385532328589,145.582
1385532388589,145.682
1385532448589,145.620
1385532508589,145.993
1385532568589,145.725
1385532628589,145.701
1385532688589,145.477
1385532748589,145.659
1385532808589,145.561
1385532868589,145.661
1385532928589,145.795
1385532988589,145.467
1385533048589,145.694
1385533108589,145.613
1385533168589,145.886
1385533228589,145.677
1385533288589,145.747
1385533348589,145.656
1385533408589,145.767
1385533468589,145.330
1385533528589,145.653
1385533588589,145.762
1385533648589,145.597
1385533708589,145.844
1385533768589,145.782
1385533828589,145.701
1385533888589,145.341
1385533948589,145.320
1385534008589,145.291
1385534068589,145.031
1385534128589,145.465
1385534188589,145.457
1385534248589,145.650
1385534308589,145.505
1385534368589,145.434
1385534428589,145.296
1385534488589,145.453
1385534548589,145.370
1385534608589,145.710
1385534668589,145.580
1385534728589,145.366
1385534788589,145.517
1385534848589,145.564
1385534908589,145.590
1385534968589,144.975
1385535028589,145.111
1385535088589,145.201
1385535148589,145.598
1385535208589,145.396
1385535268589,145.483
1385535328589,145.694
1385535388589,145.303
1385535448589,145.650
1385535508589,145.936
1385535568589,145.376
1385535628600,145.354
1385535688600,145.359
1385535748600,145.620
1385535808600,145.881
1385535868600,145.667
1385535928600,145.585
1385535988600,145.548
1385536048600,145.775
1385536108600,145.626
1385536168600,145.652
1385536228600,145.942
1385536288600,145.318
1385536348600,145.485
1385536408600,145.646
1385536468600,145.492
1385536528600,145.712
1385536588600,145.621
1385536648600,145.904
1385536708600,145.915
1385536768600,145.688
1385536828600,145.852
1385536888600,145.632
1385536948600,145.698
1385537008600,145.712
1385537068600,145.747
1385537128600,146.024
1385537188600,145.861
1385537248600,145.987
1385537308600,145.638
1385537368600,145.750
1385537428600,145.887
1385537488600,145.726
1385537548600,145.865
1385537608600,145.790
1385537668600,145.725
1385537728600,145.894
1385537788600,145.516
1385537848600,145.719
1385537908600,145.540
1385537968600,145.890
1385538028600,145.809
1385538088600,145.809
1385538148600,145.558
1385538208600,146.106
1385538268600,146.310
1385538328600,145.759
1385538388600,145.835
1385538448600,145.781
1385538508600,145.950
1385538568600,145.857
1385538628600,146.016
1385538688600,145.670
1385538748600,146.184
1385538808600,145.776
1385538868600,145.726
1385538928600,145.995
1385538988600,145.891
1385539048600,145.947
1385539108600,146.087
1385539168600,146.070
1385539228610,145.898
1385539288610,146.129
1385539348610,145.950
1385539408610,145.996
1385539468610,145.843
1385539528610,146.239
1385539588610,145.835
1385539648610,146.386
1385539708610,146.214
1385539768610,146.201
1385539828610,146.299
1385539888610,146.346
1385539948610,146.298
1385540008610,146.095
1385540068610,146.013
1385540128610,145.928
1385540188610,146.231
1385540248610,146.292
1385540308610,145.933
1385540368610,146.166
1385540428610,146.289
1385540488610,146.140
1385540548610,146.310
1385540608610,146.195
1385540668610,146.113
1385540728610,145.977
1385540788610,146.077
1385540848610,146.275
1385540908610,146.046
1385540968610,146.102
1385541028610,146.424
1385541088610,146.029
1385541148610,146.057
1385541208610,146.211
1385541268610,146.012
1385541328610,145.972
1385541388610,146.194
1385541448610,146.405
1385541508610,145.979
1385541568610,146.303
1385541628610,146.174
1385541688610,145.994
1385541748610,146.106
1385541808610,146.421
1385541868610,146.238
1385541928610,146.008
1385541988610,146.128
1385542048610,146.080
1385542108610,146.322
1385542168610,145.977
1385542228610,146.312
1385542288610,145.897
1385542348610,146.046
1385542408610,146.122
1385542468610,146.292
1385542528610,146.363
1385542588610,146.225
1385542648610,145.957
1385542708610,145.998
1385542768610,145.815
1385542828621,146.555
1385542888621,145.861
1385542948621,146.059
1385543008621,145.846
1385543068621,146.280
1385543128621,146.241
1385543188621,146.273
1385543248621,146.209
1385543308621,146.479
1385543368621,146.572
1385543428621,146.444
1385543488621,145.998
1385543548621,145.863
1385543608621,146.191
1385543668621,145.821
1385543728621,146.047
1385543788621,145.963
1385543848621,146.064
1385543908621,145.627
1385543968621,145.843
1385544028621,145.863
1385544088621,145.861
1385544148621,145.704
1385544208621,145.912
1385544268621,146.034
1385544328621,146.036
1385544388621,145.981
1385544448621,145.908
1385544508621,145.749
1385544568621,145.666
1385544628621,145.866
1385544688621,145.865
1385544748621,145.705
1385544808621,145.734
1385544868621,145.555
1385544928621,145.619
1385544988621,145.669
1385545048621,145.781
1385545108621,145.785
1385545168621,145.597
1385545228621,145.863
1385545288621,145.638
1385545348621,145.968
1385545408621,145.797
1385545468621,146.017
1385545528621,145.799
1385545588621,145.428
1385545648621,146.252
1385545708621,145.714
1385545768621,145.893
1385545828621,145.846
1385545888621,146.282
1385545948621,146.070
1385546008621,146.082
1385546068621,145.788
1385546128621,145.728
1385546188621,145.990
1385546248621,145.791
1385546308621,146.310
1385546368621,145.946
1385546428632,146.071
1385546488632,146.203
1385546548632,145.873
1385546608632,146.002
1385546668632,145.902
1385546728632,145.744
1385546788632,146.304
1385546848632,145.968
1385546908632,145.968
1385546968632,145.772
1385547028632,146.063
1385547088632,145.569
1385547148632,146.384
1385547208632,146.246
1385547268632,145.953
1385547328632,146.275
1385547388632,146.077
1385547448632,145.979
1385547508632,146.055
1385547568632,146.025
1385547628632,146.155
1385547688632,146.217
1385547748632,146.066
1385547808632,145.911
1385547868632,146.243
1385547928632,145.964
1385547988632,146.130
1385548048632,146.698
1385548108632,146.382
1385548168632,146.213
1385548228632,145.965
1385548288632,146.268
1385548348632,146.441
1385548408632,146.560
1385548468632,146.209
1385548528632,146.315
1385548588632,146.342
1385548648632,146.376
1385548708632,146.288
1385548768632,146.181
1385548828632,146.327
1385548888632,146.513
1385548948632,146.253
1385549008632,146.555
1385549068632,145.987
1385549128632,146.420
1385549188632,146.320
1385549248632,146.384
1385549308632,146.087
1385549368632,146.316
1385549428632,146.403
1385549488632,146.052
1385549548632,146.410
1385549608632,146.518
1385549668632,146.027
1385549728632,146.245
1385549788632,146.383
1385549848632,146.210
1385549908632,146.031
1385549968632,146.356
1385550028643,146.343
1385550088643,146.343
1385550148643,146.349
1385550208643,146.168
1385550268643,146.210
1385550328643,146.324
1385550388643,146.443
1385550448643,146.026
1385550508643,146.370
1385550568643,146.462
1385550628643,146.199
1385550688643,146.053
1385550748643,146.129
1385550808643,146.154
1385550868643,146.001
1385550928643,146.300
1385550988643,146.390
1385551048643,146.016
1385551108643,146.139
1385551168643,146.080
1385551228643,146.268
1385551288643,146.311
1385551348643,146.347
1385551408643,146.187
1385551468643,146.167
1385551528643,146.178
1385551588643,146.387
1385551648643,146.268
1385551708643,146.095
1385551768643,146.205
1385551828643,146.518
1385551888643,146.264
1385551948643,146.200
1385552008643,146.264
1385552068643,146.316
1385552128643,146.331
1385552188643,145.900
1385552248643,146.222
1385552308643,146.247
1385552368643,146.298
1385552428643,146.262
1385552488643,146.321
1385552548643,146.449
1385552608643,146.044
1385552668643,146.231
1385552728643,146.338
1385552788643,145.935
1385552848643,146.261
1385552908643,146.389
1385552968643,146.305
1385553028643,146.389
1385553088643,146.183
1385553148643,146.374
1385553208643,145.938
1385553268643,146.057
1385553328643,146.711
1385553388643,146.175
1385553448643,146.043
1385553508643,145.947
1385553568643,146.051
1385553628654,146.002
1385553688654,145.908
1385553748654,146.155
1385553808654,146.109
1385553868654,145.999
1385553928654,145.831
1385553988654,145.900
1385554048654,145.881
1385554108654,145.725
1385554168654,146.281
1385554228654,146.215
1385554288654,145.958
1385554348654,146.235
1385554408654,145.917
1385554468654,146.048
1385554528654,145.885
1385554588654,145.670
1385554648654,145.620
1385554708654,145.879
1385554768654,145.540
1385554828654,145.850
1385554888654,145.796
1385554948654,145.886
1385555008654,145.576
1385555068654,145.699
1385555128654,145.835
1385555188654,145.783
1385555248654,145.616
1385555308654,145.859
1385555368654,146.068
1385555428654,145.748
1385555488654,145.593
1385555548654,145.357
1385555608654,145.749
1385555668654,145.611
1385555728654,145.210
1385555788654,145.461
1385555848654,145.962
1385555908654,145.764
1385555968654,145.328
1385556028654,145.856
1385556088654,145.373
1385556148654,145.583
1385556208654,145.727
1385556268654,145.434
1385556328654,145.444
1385556388654,145.684
1385556448654,145.516
1385556508654,145.551
1385556568654,145.575
1385556628654,145.130
1385556688654,145.456
1385556748654,145.564
1385556808654,145.383
1385556868654,145.170
1385556928654,145.288
1385556988654,145.502
1385557048654,145.232
1385557108654,145.209
1385557168654,145.306
1385557228666,145.132
1385557288666,145.117
1385557348666,144.927
1385557408666,145.103
1385557468666,145.167
1385557528666,144.997
1385557588666,144.965
1385557648666,145.290
1385557708666,144.973
1385557768666,145.213
1385557828666,144.758
1385557888666,144.989
1385557948666,145.059
1385558008666,144.802
1385558068666,145.018
1385558128666,145.100
1385558188666,144.962
1385558248666,145.480
1385558308666,144.911
1385558368666,144.963
1385558428666,144.813
1385558488666,145.086
1385558548666,144.703
1385558608666,144.994
1385558668666,144.980
1385558728666,144.814
1385558788666,144.790
1385558848666,144.543
1385558908666,144.559
1385558968666,144.431
1385559028666,144.786
1385559088666,144.835
1385559148666,144.663
1385559208666,144.826
1385559268666,144.401
1385559328666,144.852
1385559388666,144.714
1385559448666,144.627
1385559508666,144.334
1385559568666,144.682
1385559628666,144.527
1385559688666,144.295
1385559748666,144.721
1385559808666,144.417
1385559868666,144.800
1385559928666,144.319
1385559988666,144.188
1385560048666,144.321
1385560108666,144.125
1385560168666,144.274
1385560228666,144.142
1385560288666,144.455
1385560348666,144.322
1385560408666,144.402
1385560468666,144.348
1385560528666,143.962
1385560588666,143.934
1385560648666,143.908
1385560708666,144.168
1385560768666,144.182
1385560828680,144.362
1385560888680,143.781
1385560948680,144.065
1385561008680,144.159
1385561068680,144.129
1385561128680,144.059
1385561188680,144.230
1385561248680,144.014
1385561308680,143.956
1385561368680,144.093
1385561428680,143.655
1385561488680,143.946
1385561548680,143.883
1385561608680,143.791
1385561668680,143.691
1385561728680,143.973
1385561788680,143.904
1385561848680,143.693
1385561908680,143.824
1385561968680,143.677
1385562028680,143.470
1385562088680,144.084
1385562148680,143.480
1385562208680,143.911
1385562268680,143.447
1385562328680,143.668
1385562388680,143.906
1385562448680,143.676
1385562508680,143.520
1385562568680,143.634
1385562628680,143.450
1385562688680,143.478
1385562748680,143.920
1385562808680,143.370
1385562868680,143.733
1385562928680,143.716
1385562988680,143.408
1385563048680,143.506
1385563108680,143.646
1385563168680,143.508
1385563228680,143.623
1385563288680,143.299
1385563348680,143.077
1385563408680,143.458
1385563468680,143.457
1385563528680,143.370
1385563588680,143.333
1385563648680,143.569
1385563708680,143.663
1385563768680,143.262
1385563828680,143.255
1385563888680,143.160
1385563948680,143.452
1385564008680,143.299
1385564068680,143.237
1385564128680,142.956
1385564188680,143.165
1385564248680,143.229
1385564308680,143.101
1385564368680,142.879
1385564428692,142.954
1385564488692,142.992
1385564548692,142.945
1385564608692,143.028
1385564668692,142.959
1385564728692,142.970
1385564788692,142.969
1385564848692,142.940
1385564908692,142.806
1385564968692,142.832
1385565028692,142.638
1385565088692,142.764
1385565148692,143.071
1385565208692,142.884
1385565268692,142.761
1385565328692,142.888
1385565388692,142.692
1385565448692,142.474
1385565508692,142.870
1385565568692,142.548
1385565628692,142.651
1385565688692,142.335
1385565748692,142.517
1385565808692,142.437
1385565868692,142.716
1385565928692,142.240
1385565988692,142.525
1385566048692,142.682
1385566108692,142.477
1385566168692,142.675
1385566228692,142.337
1385566288692,142.594
1385566348692,142.506
1385566408692,142.429
1385566468692,142.814
1385566528692,142.469
1385566588692,142.534
1385566648692,142.646
1385566708692,142.654
1385566768692,142.674
1385566828692,142.382
1385566888692,142.621
1385566948692,142.474
1385567008692,142.660
1385567068692,142.350
1385567128692,142.522
1385567188692,142.628
1385567248692,142.443
1385567308692,142.623
1385567368692,142.653
1385567428692,142.577
1385567488692,142.642
1385567548692,142.547
1385567608692,142.501
1385567668692,142.369
1385567728692,142.500
1385567788692,142.560
1385567848692,142.337
1385567908692,142.199
1385567968692,142.273
1385568028703,142.440
1385568088703,142.170
1385568148703,142.319
1385568208703,142.457
1385568268703,142.460
1385568328703,142.362
1385568388703,142.457
1385568448704,142.595
1385568508704,142.630
1385568568704,142.374
1385568628703,142.509
1385568688703,142.611
1385568748703,142.225
1385568808703,142.387
1385568868703,142.635
1385568928703,142.318
1385568988703,142.594
1385569048703,142.549
1385569108703,142.278
1385569168703,142.325
1385569228703,142.172
1385569288703,142.265
1385569348703,142.424
1385569408703,142.413
1385569468703,142.696
1385569528703,142.461
1385569588703,142.622
1385569648703,142.727
1385569708703,142.601
1385569768703,142.419
1385569828704,142.751
1385569888704,142.612
1385569948704,142.332
1385570008703,142.537
1385570068703,142.766
1385570128703,142.172
1385570188703,142.701
1385570248703,142.580
1385570308703,142.750
1385570368703,142.775
1385570428703,142.816
1385570488703,142.944
1385570548703,142.618
1385570608703,142.817
1385570668703,142.867
1385570728703,142.565
1385570788703,142.948
1385570848703,142.705
1385570908703,142.647
1385570968703,142.693
1385571028703,143.100
1385571088703,142.367
1385571148704,142.832
1385571208704,142.530
1385571268704,142.561
1385571328703,142.687
1385571388703,142.347
1385571448703,142.915
1385571508703,142.715
1385571568703,142.923
1385571628715,142.569
1385571688715,142.801
1385571748715,142.869
1385571808715,142.798
1385571868715,142.922
1385571928715,142.636
1385571988715,142.849
1385572048715,142.861
1385572108715,142.557
1385572168715,142.688
1385572228715,142.566
1385572288715,142.901
1385572348715,142.766
1385572408715,142.733
1385572468715,142.734
1385572528715,142.663
1385572588715,143.058
1385572648715,142.707
1385572708715,142.731
1385572768715,142.831
1385572828715,142.688
1385572888715,142.818
1385572948715,142.652
1385573008715,142.947
1385573068715,142.610
1385573128715,142.499
1385573188715,142.839
1385573248715,142.960
1385573308715,142.511
1385573368715,142.759
1385573428715,142.733
1385573488715,142.569
1385573548715,142.616
1385573608715,142.506
1385573668715,142.338
1385573728715,142.308
1385573788715,142.604
1385573848715,142.842
1385573908715,142.556
1385573968715,142.444
1385574028715,142.326
1385574088715,142.333
1385574148715,142.521
1385574208715,142.706
1385574268715,142.474
1385574328715,142.210
1385574388715,142.553
1385574448715,142.337
1385574508715,142.698
1385574568715,142.283
1385574628715,142.590
1385574688715,142.556
1385574748715,142.202
1385574808715,142.219
1385574868715,142.703
1385574928715,142.663
1385574988715,142.390
1385575048715,142.470
1385575108715,142.760
1385575168715,142.488
1385575228726,142.765
1385575288726,142.596
1385575348726,142.502
1385575408726,142.652
1385575468726,142.692
1385575528726,142.813
1385575588726,142.908
1385575648726,142.640
1385575708726,142.523
1385575768726,142.775
1385575828726,142.456
1385575888726,142.610
1385575948726,143.032
1385576008726,142.699
1385576068726,142.611
1385576128726,142.504
1385576188726,142.152
1385576248726,142.725